This demonstration page uses our WeatherBlox Daily Observations layout. Learn more.

Left ArrowRight Arrow

31.31129, -92.44514

Hourly Observations for December 5, 2019

Temp ( °F °C ) Dew Point ( °F °C ) Humidity (%) Winds ( mph kmh ) Pressure ( in mb ) Visibility ( mi km ) Precip ( " mm )
12:53 am 00:53 Clear 43 6.1 39 3.9 86 86 Calm 30.06 1018 10 16 0.00 0.00
1:53 am 01:53 Clear 43 6.1 39 3.9 86 86 Calm 30.06 1018 10 16 0.00 0.00
2:53 am 02:53 Clear 42 5.6 39 3.9 89 89 Calm 30.07 1018 9 14 0.00 0.00
3:53 am 03:53 Clear 41 5 38 3.3 89 89 Calm 30.08 1019 10 16 0.00 0.00
4:53 am 04:53 Clear 44 6.7 41 5 89 89 Calm 30.07 1018 10 16 0.00 0.00
5:53 am 05:53 Clear 45 7.2 42 5.6 90 90 Calm 30.10 1019 10 16 0.00 0.00
6:53 am 06:53 Clear 45 7.2 42 5.6 90 90 Calm 30.11 1020 10 16 0.00 0.00
7:53 am 07:53 Sunny with Mist and Fog 48 8.9 44 6.7 86 86 Calm 30.14 1021 3 5 0.00 0.00
8:53 am 08:53 Hazy 52 11.1 45 7.2 77 77 E 3 6 30.14 1021 3 5 0.00 0.00
9:53 am 09:53 Sunny 59 15 42 5.6 54 54 SSE 8 13 30.14 1021 9 14 0.00 0.00
10:53 am 10:53 Sunny 65 18.3 41 5 42 42 SSE 9 15 30.13 1020 10 16 0.00 0.00
11:53 am 11:53 Sunny 68 20 39 3.9 35 35 SSE 12 19 30.09 1019 10 16 0.00 0.00
12:53 pm 12:53 Sunny 70 21.1 39 3.9 32 32 S 9 15 30.06 1018 10 16 0.00 0.00
1:53 pm 13:53 Sunny 70 21.1 38 3.3 31 31 S 13 20 30.04 1017 10 16 0.00 0.00
2:53 pm 14:53 Sunny 70 21.1 39 3.9 32 32 S 13 20 30.02 1017 10 16 0.00 0.00
3:53 pm 15:53 Sunny 67 19.4 42 5.6 41 41 S 9 15 30.02 1017 10 16 0.00 0.00
4:53 pm 16:53 Sunny 62 16.7 43 6.1 50 50 SE 7 11 30.02 1017 10 16 0.00 0.00
5:53 pm 17:53 Clear 60 15.6 43 6.1 53 53 SSE 6 9 30.03 1017 10 16 0.00 0.00
6:53 pm 18:53 Clear 59 15 44 6.7 58 58 S 8 13 30.04 1017 10 16 0.00 0.00
7:53 pm 19:53 Clear 58 14.4 47 8.3 67 67 SSE 9 15 30.05 1018 10 16 0.00 0.00
8:53 pm 20:53 Clear 58 14.4 50 10 75 75 SSE 8 13 30.05 1018 10 16 0.00 0.00
9:53 pm 21:53 Clear 56 13.3 51 10.6 84 84 SSE 8 13 30.05 1018 10 16 0.00 0.00
10:53 pm 22:53 Partly Cloudy 56 13.3 52 11.1 87 87 SSE 7 11 30.05 1018 10 16 0.00 0.00
11:04 pm 23:04 Mostly Cloudy 57 13.9 52 11.1 83 83 SSE 9 15 30.04 1017 10 16 0.00 0.00
11:19 pm 23:19 Partly Cloudy 57 13.9 52 11.1 83 83 SSE 10 17 30.03 1017 10 16 0.00 0.00
11:53 pm 23:53 Clear 57 13.9 52 11.1 83 83 SSE 8 13 30.04 1017 10 16 0.00 0.00

Powered by AerisWeather